Lancaster, CA

4:39 AM PST on December 11, 2019 (GMT -0800)
Gen Fox

Weather History for KWJF - May, 2019

Change the Weather History Date:

Saturday, May 25, 2019

  Actual Average Record
Temperature  
Mean Temperature 63 °F 71 °F  
Max Temperature 74 °F 85 °F 105 °F (1951)
Min Temperature 51 °F 56 °F 41 °F (1953)
Degree Days  
Heating Degree Days 2    
Month to date heating degree days 120  
Since 1 July heating degree days 3020  
Cooling Degree Days 0    
Month to date cooling degree days 23  
Year to date cooling degree days 67  
Growing Degree Days 13 (Base 50)    
Moisture  
Dew Point 44 °F    
Average Humidity 51    
Maximum Humidity 77    
Minimum Humidity 25    
Precipitation  
Precipitation 0.00 in 0.00 in 0.05 in (1987)
Month to date precipitation 0.53 0.08  
Year to date precipitation 5.47 4.85  
Snow  
Snow 0.00 in - 0.00 in ()
Month to date snowfall 0.0  
Since 1 July snowfall 0.0  
Snow Depth 0.00 in    
Sea Level Pressure  
Sea Level Pressure 29.82 in    
Wind  
Wind Speed 17 mph (WSW)    
Max Wind Speed 30 mph    
Max Gust Speed 36 mph    
Visibility 10 miles    
Events      
T = Trace of Precipitation, MM = Missing Value Source: NWS Daily Summary

Daily Weather History Graph

Daily Weather History Graph

Search for Another Location

Airport or City:

Astronomy

May. 25, 2019 Rise Set
Actual Time 5:43 AM PDT 7:56 PM PDT
Civil Twilight 5:15 AM PDT 8:25 PM PDT
Nautical Twilight 4:40 AM PDT 9:00 PM PDT
Astronomical Twilight 4:02 AM PDT 9:38 PM PDT
Moon 1:02 AM PDT (5/25) 11:44 AM PDT (5/25)
Length of Visible Light 15h 09m
Length of Day
14h 12m
Waning Gibbous, 58% of the Moon is Illuminated
May 25
Waning Gibbous
May 26
Last Quarter
Jun 3
New
Jun 9
First Quarter
Jun 17
Full

Hourly Weather History & Observations

Time (PDT) Temp. Dew Point Humidity Pressure Visibility Wind Dir Wind Speed Gust Speed Precip Events Conditions
12:56 AM 59.0 °F 48.9 °F 69% 29.87 in 10.0 mi West 12.7 mph - N/A   Mostly Cloudy
1:56 AM 59.0 °F 48.0 °F 67% 29.86 in 10.0 mi West 15.0 mph - N/A   Partly Cloudy
2:56 AM 57.9 °F 48.0 °F 70% 29.84 in 10.0 mi West 10.4 mph - N/A   Clear
3:56 AM 55.9 °F 48.0 °F 75% 29.83 in 10.0 mi West 10.4 mph - N/A   Clear
4:56 AM 54.0 °F 46.9 °F 77% 29.83 in 10.0 mi West 8.1 mph - N/A   Clear
5:56 AM 53.1 °F 46.0 °F 77% 29.83 in 10.0 mi WSW 8.1 mph - N/A   Clear
6:56 AM 57.0 °F 46.9 °F 69% 29.84 in 10.0 mi Calm Calm - N/A   Clear
7:56 AM 62.1 °F 45.0 °F 53% 29.84 in 10.0 mi WSW 15.0 mph - N/A   Clear
8:56 AM 64.0 °F 44.1 °F 48% 29.84 in 10.0 mi WSW 18.4 mph - N/A   Clear
9:56 AM 68.0 °F 42.1 °F 39% 29.84 in 10.0 mi SW 17.3 mph 23.0 mph N/A   Clear
10:56 AM 71.1 °F 42.1 °F 35% 29.84 in 10.0 mi WSW 18.4 mph 26.5 mph N/A   Clear
11:56 AM 73.0 °F 35.1 °F 25% 29.83 in 10.0 mi SW 19.6 mph 26.5 mph N/A   Clear
12:56 PM 73.9 °F 36.0 °F 25% 29.82 in 10.0 mi SW 20.7 mph 27.6 mph N/A   Clear
1:56 PM 73.9 °F 37.0 °F 26% 29.81 in 10.0 mi SSW 25.3 mph 31.1 mph N/A   Clear
2:56 PM 73.9 °F 39.9 °F 29% 29.79 in 10.0 mi SW 24.2 mph 33.4 mph N/A   Clear
3:56 PM 71.1 °F 42.1 °F 35% 29.78 in 10.0 mi SW 21.9 mph 35.7 mph N/A   Clear
4:56 PM 71.1 °F 44.1 °F 38% 29.78 in 10.0 mi SW 25.3 mph 32.2 mph N/A   Clear
5:56 PM 69.1 °F 46.0 °F 44% 29.81 in 10.0 mi WSW 24.2 mph - N/A   Clear
6:56 PM 63.0 °F 43.0 °F 48% 29.83 in 10.0 mi WSW 20.7 mph - N/A   Scattered Clouds
7:56 PM 61.0 °F 44.1 °F 54% 29.80 in 10.0 mi SW 13.8 mph - N/A   Clear
8:56 PM 57.9 °F 46.0 °F 65% 29.80 in 10.0 mi WSW 13.8 mph - N/A   Clear
9:56 PM 57.0 °F 45.0 °F 64% 29.80 in 10.0 mi WSW 13.8 mph - N/A   Clear
10:56 PM 55.9 °F 43.0 °F 62% 29.78 in 10.0 mi SW 17.3 mph - N/A   Clear
11:56 PM 54.0 °F 45.0 °F 72% 29.78 in 10.0 mi WSW 19.6 mph 25.3 mph N/A   Clear